Location: Noverd
(38.0910°N, 121.6877°W)
Time: 00:20:56
(UTC+00:00)

Cosmos 2100 Rocket - Pass Details

Date: 22 May 2026
Orbit: 956 x 999 km, 82.9° (Epoch: 10 June)

Event Time Altitude Azimuth Distance (km) Brightness Sun altitude
Rises 03:43:06 0° 207° (SSW) 3,661 7.0 -5.5°
Reaches altitude 10° 03:45:46 10° 215° (SW) 2,724 6.4 -6.0°
Maximum altitude 03:51:34 39° 283° (WNW) 1,434 5.6 -6.9°
Drops below altitude 10° 03:57:28 10° 351° (N) 2,765 7.0 -7.9°
Sets 04:00:12 0° 359° (N) 3,722 7.6 -8.3°
